Regional Weather Roundup
Issued by NWS Charleston, SC

Current Version | Previous Version | Text Only | Print | Product List | Glossary Off
Versions: 1 2 3 4 5 6 7 8 9 10 11 12 13 14 15 16 17 18 19 20 21 22 23 24 25 26 27 28 29 30 31 32 33 34 35 36 37 38 39 40 41 42 43 44 45 46 47 48 49 50

000
ASUS42 KCHS 051727
RWRCHS

REGIONAL WEATHER ROUNDUP
NATIONAL WEATHER SERVICE CHARLESTON SC
100 PM EDT SUN JUL 05 2015

NOTE: "FAIR" INDICATES FEW OR NO CLOUDS BELOW 12,000 FEET WITH NO
SIGNIFICANT WEATHER AND/OR OBSTRUCTIONS TO VISIBILITY.

NOT ALL STATIONS ARE QUALITY CONTROLLED BY THE NATIONAL
WEATHER SERVICE. USE DATA WITH CAUTION...ESPECIALLY
DEWPOINT OBSERVATIONS.

SCZ027-030-031-034>040-042>050-051800-
...SOUTHEAST SOUTH CAROLINA...

CITY           SKY/WX    TMP DP  RH WIND       PRES   REMARKS
N CHARLESTON   MOSUNNY   87  71  58 S7        30.14F HX  93
WATERFRONT PAR   N/A     85  74  69 SW5       30.13F HX  93
MOUNT PLEASANT LGT RAIN  88  75  66 S14       30.14F HX  97
JOHNS ISLAND   FAIR      86  75  70 SE9       30.14F HX  95
PINOPOLIS      NOT AVBL
MONCKS CORNER  FAIR      90  70  51 S7        30.13F HX  95
SUMMERVILLE    FAIR      88  73  62 S3        30.14F HX  96
BEAUFORT MCAS  MOSUNNY   90  74  59 S5        30.13F THUNDER HX  99
BEAUFORT ARPT  FAIR      88  75  66 S7        30.13S HX  97
HILTON HEAD IS MOSUNNY   88  79  74 SW3       30.15F HX 102
WALTERBORO     MOSUNNY   86  72  62 S6        30.14S HX  92
ALLENDALE      FAIR      88  72  58 VRB3      30.12F HX  94

...SOUTHERN MIDLANDS AND PEE DEE...

CITY           SKY/WX    TMP DP  RH WIND       PRES   REMARKS
GEORGETOWN     NOT AVBL
KINGSTREE      NOT AVBL
ORANGEBURG     SUNNY     88  68  51 VRB5      30.13F HX  91
BARNWELL       PTSUNNY   88  70  55 SW7       30.13F HX  92
AIKEN          NOT AVBL
MANNING        FAIR      86  63  45 SE5       30.12F
COLUMBIA       MOSUNNY   88  65  46 SW10      30.11F HX  90
SUMTER         MOSUNNY   87  68  52 VRB3      30.11F HX  91
FLORENCE       MOSUNNY   87  71  58 S7        30.12F HX  93
MYRTLE BEACH   MOSUNNY   86  72  62 S14       30.16  HX  92
N MYRTLE BEACH SUNNY     84  73  69 S13       30.15S HX  90

$$

GAZ063-065-086>088-099>101-113>116-118-119-134>141-150-051800-
...SOUTHEAST GEORGIA...

CITY           SKY/WX    TMP DP  RH WIND       PRES   REMARKS
SAVANNAH ARPT  PTSUNNY   89  72  56 SW9       30.12F THUNDER HX  96
HUNTER AAF     MOSUNNY   89  76  65 VRB5      30.11F HX 100
FORT STEWART   MOSUNNY   87  73  62 SW8       30.11F HX  94
STATESBORO     NOT AVBL
SYLVANIA       MOSUNNY   88  73  60 W5        30.14F HX  96
CLAXTON        FAIR      88  73  62 W6        30.13F HX  96

...CSRA...CENTRAL AND FAR SOUTHEAST GEORGIA...

CITY           SKY/WX    TMP DP  RH WIND       PRES   REMARKS
THOMSON        MOSUNNY   85  72  63 W9        30.17S HX  91
AUGUSTA-BUSH   SUNNY     87  68  52 SW13      30.11F HX  90
AUGUSTA-DANIEL SUNNY     87  68  52 SW8       30.13F HX  90
SWAINSBORO     FAIR      88  72  58 W6        30.14F HX  94
VIDALIA        MOSUNNY   88  68  51 SW5       30.14F HX  91
EASTMAN        FAIR      86  72  61 W7        30.17F HX  92
HAZLEHURST     CLOUDY    88  71  56 W9        30.13F HX  94
ALMA           MOSUNNY   88  72  58 VRB3      30.13F HX  94
WAYCROSS       PTSUNNY   85  73  67 NW12G18   30.14S HX  92
JESUP          FAIR      91  73  55 S7        30.13F HX 100
BAXLEY         RAIN      81  75  83 W3        30.14S
BRUNSWICK      MOSUNNY   91  73  55 SW5       30.15F HX 100
SAINT SIMONS   SUNNY     85  75  72 SE6       30.15F HX  93

$$

SCZ027-028-034-036>038-045-046-048>050-GAZ119-141-051800-
...LAKE AND SUPPLEMENTAL COASTAL OBSERVATIONS...

STATION/POSITION TIME  TEMP    WIND        PRES    WAVE   SWELL
                       AIR SEA DIR/SP/G            HT/PER HT/PER/DIR
                 (UTC) (F)     (DEG/KT/KT) (MB)    (FT/S) (FT/S/D)
UPR LAKE MARION  NOT AVBL
WINYAH BAY       1600   84     210/  8     1020.0
LAKE MURRAY      1600   81     170/  5/  6 1019.6S
ACE BASIN NERRS  1600   86     230/  1     1021.0S
FORT PULASKI     1700   85 83  150/  6/  9 1021.0F
SAPELO ISLAND    1700   89     160/  6     1021.0S

$$

ANZ835-935-AMZ111-154-330-350-352-354-370-450-454-472-051800-
...C-MAN AND BUOY OBSERVATIONS...

STATION/POSITION TIME  TEMP    WIND        PRES    WAVE   SWELL
                       AIR SEA DIR/SP/G            HT/PER HT/PER/DIR
                 (UTC) (F)     (DEG/KT/KT) (MB)    (FT/S) (FT/S/D)
BUOY 41004       1650   81 82  230/ 10/ 12 1021.2R   3/ 9   2/ 9
BUOY 41008       1650   78 79  170/  8/ 10 1021.3F   2/10   2/100/10
FOLLY BEACH CMAN 1700   83     200/  9/ 11 1021.2F
CAPERS NEARSHORE 1608   82     240/ 12/ 14 1021.5S
FRIPP NEARSHORE  1600   82     220/ 12/ 14 1021.0F


STATION/POSITION TIME  TEMP    WIND        PRES    WAVE   SWELL
                       AIR SEA DIR/SP/G            HT/PER HT/PER/DIR
                 (UTC) (F)     (DEG/KT/KT) (MB)    (FT/S) (FT/S/D)
5E ST. MARYS GA  1621      79                N/A     2/ 9
FRYING PAN BUOY  1650   81 79  210/  8/  8 1021.7R   3/ 9   2/130/ 9
BUOY 41025       1650   80 81  230/ 14/ 16 1020.8S   3/ 5   2/140/ 9
CAPE LOOKOUT NC  1700   82     220/  9/ 12 1020.8F
BUOY 41002       1650   79 80  210/ 12/ 14 1024.2S   4/ 9   3/130/ 9
BUOY 41010       1620   84 85  150/  6/  8 1023.2R
ST AUGUSTINE FL  1700   77 71  130/  7/  8 1022.1F


$$


USA.gov is the U.S. government's official web portal to all federal, state and local government web resources and services.